Location: Unspecified
(45.3999°N, 88.1269°W)
Time: 19:27:03
(UTC-05:00)

CZ-3 Stage 3 - Visible Passes

Search period start: 19 August 2017 00:00
Search period end: 29 August 2017 00:00
Orbit: 429 x 34769 km, 31.0° (Epoch: 18 August)

Date Brightness Start Highest point End Pass type
(mag) Time Alt. Az. Time Alt. Az. Time Alt. Az.
19 Aug 8.2 15:43:13 10° W 16:31:50 47° SW 21:49:16 10° SW visible
20 Aug 6.5 12:03:46 10° WSW 12:18:15 58° S 20:11:32 10° S visible
21 Aug 11.2 20:02:21 10° W 20:18:53 11° W 20:38:51 10° W visible
22 Aug 8.2 15:34:09 10° W 16:22:03 46° SW 21:34:10 10° SW visible
23 Aug 6.5 11:54:38 10° WSW 12:08:58 58° S 19:58:42 10° S visible
25 Aug 8.1 15:25:04 10° W 16:12:19 45° SW 21:19:00 10° SW visible
26 Aug 6.5 11:45:30 10° WSW 11:59:42 57° S 19:45:41 10° S visible
28 Aug 8.1 15:16:00 10° W 16:02:36 44° SW 21:03:47 10° SW visible
